Ankara, Turkey

11:19 PM +03 on February 19, 2018 (GMT +0300)
Esenboga

Weather History for LTAC - October, 2013

Change the Weather History Date:

Wednesday, October 30, 2013

  Actual Average Record
Temperature  
Mean Temperature 52 °F -  
Max Temperature 73 °F 52 °F 73 °F (2013)
Min Temperature 32 °F 28 °F 23 °F (2001)
Degree Days  
Heating Degree Days 12    
Growing Degree Days 2 (Base 50)    
Moisture  
Dew Point 28 °F    
Average Humidity 44    
Maximum Humidity 75    
Minimum Humidity 11    
Precipitation  
Precipitation 0.00 in - - ()
Sea Level Pressure  
Sea Level Pressure 30.13 in    
Wind  
Wind Speed 2 mph ()    
Max Wind Speed 10 mph    
Max Gust Speed -    
Visibility 7.7 miles    
Events      
Averages and records for this station are not official NWS values.
T = Trace of Precipitation, MM = Missing Value Source: Averaged Metar Reports

Daily Weather History Graph

Daily Weather History Graph

Search for Another Location

Airport or City:

Trip Planner

Search our weather history database for the weather conditions in past years. The results will help you decide how hot, cold, wet, or windy it might be!

Date:

Astronomy

Oct. 30, 2013 Rise Set
Actual Time 6:14 AM EET 4:47 PM EET
Civil Twilight 5:46 AM EET 5:15 PM EET
Nautical Twilight 5:14 AM EET 5:47 PM EET
Astronomical Twilight 4:43 AM EET 6:19 PM EET
Moon 1:43 AM EET (10/30) 2:22 PM EET (10/30)
Length of Visible Light 11h 28m
Length of Day
10h 32m
Waning Crescent, 19% of the Moon is Illuminated
Oct 30
Waning Crescent
Nov 3
New
Nov 10
First Quarter
Nov 17
Full
Nov 25
Last Quarter

Hourly Weather History & Observations

Time (EET) Temp. Windchill Dew Point Humidity Pressure Visibility Wind Dir Wind Speed Gust Speed Precip Events Conditions
12:20 AM 42.8 °F - 26.6 °F 53% 30.12 in - Variable 1.2 mph - N/A   Clear
12:50 AM 39.2 °F - 28.4 °F 65% 30.12 in - Variable 1.2 mph - N/A   Clear
1:20 AM 37.4 °F - 26.6 °F 65% 30.12 in - Variable 1.2 mph - N/A   Clear
1:50 AM 39.2 °F - 24.8 °F 56% 30.12 in - NNE 2.3 mph - N/A   Clear
2:00 AM 40 °F - 26 °F 45% 30.10 in 12 mi NNE 2.3 mph - -  
2:20 AM 37.4 °F - 24.8 °F 60% 30.12 in - Variable 1.2 mph - N/A   Clear
2:50 AM 35.6 °F - 24.8 °F 65% 30.12 in - Variable 1.2 mph - N/A   Clear
3:20 AM 37.4 °F - 26.6 °F 65% 30.12 in - NNE 1.2 mph - N/A   Clear
3:50 AM 35.6 °F - 24.8 °F 65% 30.12 in - Variable 2.3 mph - N/A   Clear
4:20 AM 33.8 °F - 24.8 °F 70% 30.15 in - Variable 1.2 mph - N/A   Clear
4:50 AM 35.6 °F - 24.8 °F 65% 30.15 in - North 1.2 mph - N/A   Clear
5:20 AM 33.8 °F - 26.6 °F 75% 30.15 in - Variable 1.2 mph - N/A   Clear
5:50 AM 33.8 °F - 24.8 °F 70% 30.15 in - Variable 1.2 mph - N/A   Clear
6:20 AM 33.8 °F - 24.8 °F 70% 30.15 in - Variable 1.2 mph - N/A   Clear
6:50 AM 33.8 °F - 26.6 °F 75% 30.15 in - North 1.2 mph - N/A   Clear
7:20 AM 35.6 °F 32.8 °F 26.6 °F 70% 30.15 in - NNE 3.5 mph - N/A   Clear
7:50 AM 39.2 °F - 26.6 °F 61% 30.18 in - Variable 1.2 mph - N/A   Clear
8:00 AM 40 °F - 27 °F 48% 30.20 in 12 mi North 1.2 mph - -  
8:20 AM 42.8 °F - 28.4 °F 57% 30.15 in - Variable 2.3 mph - N/A   Clear
8:50 AM 46.4 °F - 28.4 °F 50% 30.15 in - Variable 1.2 mph - N/A   Clear
9:20 AM 53.6 °F - 28.4 °F 38% 30.15 in - Variable 1.2 mph - N/A   Clear
9:50 AM 57.2 °F - 24.8 °F 29% 30.15 in - Variable 1.2 mph - N/A   Clear
10:20 AM 60.8 °F - 26.6 °F 27% 30.15 in - Variable 1.2 mph - N/A   Clear
10:50 AM 64.4 °F - 26.6 °F 24% 30.15 in - Variable 1.2 mph - N/A   Clear
11:20 AM 66.2 °F - 28.4 °F 24% 30.12 in 6.2 mi Variable 1.2 mph - N/A   Partly Cloudy
11:50 AM 68.0 °F - 26.6 °F 21% 30.12 in 6.2 mi West 3.5 mph - N/A   Partly Cloudy
12:20 PM 69.8 °F - 28.4 °F 21% 30.12 in 6.2 mi Variable 1.2 mph - N/A   Partly Cloudy
12:50 PM 69.8 °F - 26.6 °F 20% 30.12 in 6.2 mi ENE 3.5 mph - N/A   Partly Cloudy
1:20 PM 71.6 °F - 28.4 °F 20% 30.09 in 6.2 mi Variable 2.3 mph - N/A   Partly Cloudy
1:50 PM 71.6 °F - 28.4 °F 20% 30.09 in 6.2 mi Variable 3.5 mph - N/A   Partly Cloudy
2:00 PM 72 °F - 28 °F 11% 30.06 in 12 mi NNW 3.5 mph - -   Scattered Clouds
2:20 PM 71.6 °F - 28.4 °F 20% 30.09 in 6.2 mi Variable 2.3 mph - N/A   Partly Cloudy
2:50 PM 71.6 °F - 28.4 °F 20% 30.09 in 6.2 mi Variable 2.3 mph - N/A   Partly Cloudy
3:20 PM 71.6 °F - 28.4 °F 20% 30.09 in - Variable 2.3 mph - N/A   Clear
3:50 PM 69.8 °F - 30.2 °F 23% 30.09 in 6.2 mi NNE 5.8 mph - N/A   Partly Cloudy
4:20 PM 68.0 °F - 30.2 °F 24% 30.09 in 6.2 mi NE 10.4 mph - N/A   Partly Cloudy
4:50 PM 66.2 °F - 30.2 °F 26% 30.09 in 6.2 mi NE 9.2 mph - N/A   Partly Cloudy
5:20 PM 64.4 °F - 28.4 °F 26% 30.09 in - East 6.9 mph - N/A   Clear
5:50 PM 60.8 °F - 28.4 °F 29% 30.12 in - NNE 4.6 mph - N/A   Clear
6:20 PM 60.8 °F - 28.4 °F 29% 30.12 in - NNE 3.5 mph - N/A   Clear
6:50 PM 55.4 °F - 30.2 °F 38% 30.12 in - North 3.5 mph - N/A   Clear
7:20 PM 53.6 °F - 30.2 °F 41% 30.12 in - Variable 1.2 mph - N/A   Clear
7:50 PM 55.4 °F - 28.4 °F 36% 30.12 in - South 1.2 mph - N/A   Clear
8:00 PM 55 °F - 29 °F 24% 30.15 in 12 mi South 1.2 mph - -  
8:20 PM 50.0 °F - 28.4 °F 43% 30.15 in - Variable 1.2 mph - N/A   Clear
8:50 PM 48.2 °F - 28.4 °F 46% 30.15 in - Variable 1.2 mph - N/A   Clear
9:20 PM 46.4 °F - 28.4 °F 50% 30.15 in - North 1.2 mph - N/A   Clear
9:50 PM 46.4 °F - 28.4 °F 50% 30.15 in - Variable 1.2 mph - N/A   Clear
10:20 PM 44.6 °F - 28.4 °F 53% 30.15 in - Variable 1.2 mph - N/A   Clear
10:50 PM 41.0 °F - 28.4 °F 61% 30.15 in - Variable 1.2 mph - N/A   Clear
11:20 PM 42.8 °F - 28.4 °F 57% 30.15 in - North 1.2 mph - N/A   Clear
11:50 PM 44.6 °F - 28.4 °F 53% 30.15 in - Variable 1.2 mph - N/A   Clear